Tracking 18186 objects as of 29-March-2017
HD Live streaming from Space Station
objects crossing your sky now

GONETS D1M 1

Track GONETS D1M 1 now!
10-day predictions
GONETS D1M 1 is classified as:


NORAD ID: 28909
Int'l Code: 2005-048B
Perigee: 1,444.3 km
Apogee: 1,456.0 km
Inclination: 82.5 °
Period: 114.7 minutes
Semi major axis: 7821 km
RCS: 1.6605 m2 (large)
Launch date: December 21, 2005
Source: Commonwealth of Independent States (former USSR) (CIS)
Launch site: PLESETSK MISSILE AND SPACE COMPLEX (PKMTR)
Your satellite tracking list
Your tracking list is empty





NASA's NSSDC Master Catalog

Two Line Element Set (TLE):
1 28909U 05048B   17087.83402454 +.00000060 +00000-0 +30681-3 0  9995
2 28909 082.4673 302.1430 0007496 106.8039 253.3867 12.55162239516211
Source of the keplerian elements: AFSPC